Lapse_Rate
8.5 8.4 8.5 8.3 7.5 8.0 8.3 8.2 8.6 8.4 8.0 7.5 7.3 7.7 7.7 7.6 7.8 7.5 7.3 6.9 6.7 6.5 6.2 5.8 5.6 5.3 5.3 5.2 5.2 5.0 5.0 5.0 4.8 4.8 4.9 4.8 4.9 5.0 5.0 5.0 5.0 5.1 5.1 5.0 5.0 5.0 5.0 4.9 5.1
8.4 8.3 8.4 8.0 8.2 8.9 7.9 8.9 8.4 8.4 7.7 7.7 7.3 7.2 7.6 7.8 7.6 7.6 7.2 7.1 6.9 6.6 6.2 5.9 5.7 5.4 5.2 5.1 4.8 4.9 5.0 5.0 5.0 5.1 5.1 5.0 5.0 5.0 5.2 5.2 5.0 4.9 5.0 4.9 4.9 5.0 5.0 5.0 5.0
8.5 8.3 8.3 8.7 8.9 8.0 7.5 9.0 9.0 8.1 7.4 7.4 7.3 7.6 7.6 7.6 7.3 7.3 7.3 7.2 6.9 6.5 6.3 6.0 5.8 5.6 5.3 5.1 5.0 4.9 5.1 5.0 5.0 5.0 5.2 5.1 5.2 5.2 5.2 5.1 4.9 4.8 4.7 4.5 4.5 4.5 4.6 4.7 4.9
8.6 8.4 8.4 8.7 7.9 9.0 8.6 9.3 8.8 8.2 7.7 7.6 7.6 7.6 7.5 7.3 7.1 7.0 7.1 7.0 6.7 6.5 6.4 6.1 6.1 5.9 5.6 5.5 5.5 5.4 5.2 5.1 5.2 5.3 5.3 5.3 5.1 5.1 5.0 4.8 4.6 4.5 4.5 4.4 4.3 4.3 4.4 4.5 4.8
8.7 8.4 8.8 9.0 9.2 8.8 8.7 9.2 8.7 8.6 8.2 7.6 7.4 7.6 7.6 7.4 7.2 7.2 7.0 6.9 6.6 6.6 6.6 6.2 6.0 5.8 5.8 5.7 5.7 5.6 5.5 5.4 5.4 5.3 5.2 5.0 5.1 4.9 4.5 4.3 4.2 4.3 4.3 4.2 4.3 4.3 4.4 4.5 4.6
7.9 8.7 9.2 8.8 8.4 7.8 9.2 9.2 9.3 8.5 8.3 7.1 7.8 7.8 7.7 7.6 7.4 7.2 7.0 6.7 6.7 6.7 6.4 6.1 6.0 5.7 5.7 5.6 5.5 5.6 5.3 5.2 5.3 5.3 5.2 4.8 4.4 4.2 4.2 4.3 4.1 4.1 4.2 4.2 4.4 4.5 4.6 4.7 4.8
7.9 8.9 9.3 9.2 8.7 9.2 8.2 8.7 9.3 8.3 8.8 7.6 7.1 7.8 7.9 7.7 7.4 7.0 6.8 6.7 6.5 6.4 6.1 5.8 5.6 5.5 5.4 5.3 5.2 5.3 5.3 5.5 5.7 5.3 4.8 4.5 4.2 4.2 4.3 4.4 4.2 4.2 4.3 4.4 4.4 4.6 4.9 5.0 5.0
8.3 9.1 9.4 9.5 9.6 8.2 8.1 8.5 8.6 8.9 8.4 8.2 8.0 7.9 7.7 7.5 7.4 7.1 6.8 6.5 6.5 6.0 5.8 5.6 5.7 5.8 5.7 5.6 5.2 5.2 5.3 5.0 5.4 5.1 4.8 4.6 4.6 4.8 5.3 4.8 4.6 4.5 4.6 4.8 4.9 4.9 5.0 5.1 5.2
8.3 8.7 9.5 9.7 9.4 8.3 8.5 9.0 8.6 8.3 8.4 8.4 8.3 8.4 7.9 7.9 7.4 7.0 6.8 6.6 6.2 6.0 5.9 5.9 6.0 5.7 5.3 5.5 5.2 5.0 5.2 5.0 5.1 5.2 5.1 4.7 4.7 4.8 4.5 4.8 4.8 4.9 4.7 4.8 4.8 4.7 4.8 5.0 4.9
8.4 9.5 9.6 9.5 9.4 9.1 9.3 9.3 8.4 8.3 8.2 8.4 8.2 8.2 7.9 7.6 7.3 7.0 6.8 6.3 6.0 6.0 6.2 6.1 5.3 5.4 5.1 5.0 4.7 4.8 5.1 4.7 5.2 4.7 4.5 5.0 4.8 5.0 5.0 4.9 4.8 4.9 5.1 5.0 5.0 5.1 5.2 5.1 4.6
8.7 8.9 9.6 9.6 8.8 8.3 8.7 8.6 8.3 8.5 7.6 8.6 8.4 8.3 8.2 7.5 7.2 6.6 5.9 6.0 6.1 6.2 5.6 5.5 5.8 5.2 5.5 5.2 5.2 5.1 4.8 4.7 4.5 5.1 5.2 4.9 4.9 4.7 4.5 4.4 4.5 4.4 4.5 4.7 4.7 4.7 4.6 4.5 4.5
8.6 8.8 8.9 9.2 8.0 8.2 8.7 7.7 8.6 8.7 8.8 8.4 8.3 8.1 7.8 7.3 7.0 6.3 5.6 5.7 6.1 5.7 5.6 5.6 5.3 5.4 5.5 5.2 4.9 4.9 4.9 4.7 4.7 4.7 5.0 4.5 4.2 4.2 4.3 4.4 4.5 4.5 4.3 4.5 4.4 4.2 4.3 4.3 4.2
8.3 8.6 8.7 8.1 7.6 7.8 8.1 8.1 8.4 8.6 8.3 8.1 8.1 7.7 7.1 7.0 6.9 6.6 6.2 6.6 5.8 6.0 5.6 5.6 5.4 5.3 5.2 5.1 5.0 4.8 5.0 4.5 4.6 4.6 4.6 4.7 4.7 4.7 4.4 4.3 4.2 4.3 4.3 4.3 4.5 4.7 4.8 4.8 4.7
8.1 8.3 8.4 7.8 7.3 7.3 7.9 8.3 8.4 8.0 7.7 7.8 7.5 7.0 6.9 6.4 6.0 5.9 6.5 6.5 6.1 5.8 5.9 5.5 5.4 5.4 5.4 5.2 5.0 5.0 4.8 4.7 4.8 4.7 4.9 4.9 4.6 4.5 4.5 4.5 4.5 4.6 5.0 5.0 5.1 5.0 5.0 5.0 4.9
7.9 7.9 7.7 7.5 7.4 6.7 7.9 7.8 7.7 7.6 7.4 7.2 6.7 6.8 6.8 6.7 6.5 6.5 6.0 6.1 6.0 5.6 5.6 5.7 5.5 5.5 5.5 5.2 5.1 5.1 5.2 5.1 4.9 4.8 4.8 5.0 4.7 4.7 4.7 4.8 5.1 5.1 5.1 5.1 5.0 5.1 5.1 5.1 5.1
7.7 7.9 8.7 8.1 7.5 7.1 6.9 6.6 7.2 7.3 6.6 6.7 6.5 6.6 6.5 6.5 6.1 6.0 6.1 6.1 5.9 5.8 5.8 5.7 5.5 5.2 5.2 5.3 5.3 5.3 5.3 5.2 5.1 4.9 4.8 5.0 4.9 5.0 5.2 5.1 5.1 5.1 5.1 5.2 5.3 5.4 5.5 5.7 5.8
7.9 8.9 9.4 8.1 7.4 8.1 7.7 6.9 7.5 7.0 6.5 6.3 6.3 6.2 6.3 6.3 6.1 6.1 6.1 5.9 5.9 5.9 5.8 5.3 5.3 5.3 5.3 5.2 5.3 5.3 5.3 5.3 5.2 5.1 5.1 5.1 5.2 5.2 5.2 5.2 5.3 5.5 5.6 5.8 5.9 6.1 6.3 6.6 6.6
9.7 9.5 9.5 9.5 6.9 7.4 7.4 7.6 7.6 7.1 6.4 6.5 6.3 6.3 6.2 6.0 6.0 6.1 5.9 5.9 5.8 5.5 5.7 5.2 5.4 5.3 5.1 5.1 5.1 4.9 4.9 4.9 4.9 5.0 5.2 5.3 5.1 5.1 5.2 5.4 5.6 5.8 5.9 6.2 6.5 6.6 6.7 6.6 6.3
9.5 8.9 9.6 9.1 7.4 7.5 6.8 7.3 7.6 6.9 6.4 6.4 6.2 6.1 5.9 5.9 5.9 5.9 5.7 5.7 5.6 5.5 5.2 5.3 5.1 5.0 5.0 5.2 5.3 5.3 5.2 5.1 5.1 5.1 5.2 5.1 5.1 5.2 5.5 5.8 5.9 6.1 6.4 6.4 6.6 6.3 5.7 4.9 4.9
8.5 8.6 9.2 8.1 7.4 7.6 6.5 6.0 7.5 6.8 6.4 6.4 6.2 6.1 5.9 5.9 5.8 5.7 5.6 5.6 5.4 5.3 5.2 5.0 4.9 5.2 5.2 5.3 5.3 5.3 5.2 5.1 5.1 4.9 4.9 4.9 5.0 5.5 5.7 5.9 6.3 6.5 6.7 6.7 6.2 5.5 4.9 4.7 4.9
8.4 8.7 9.6 9.1 7.6 7.8 6.9 6.4 6.7 6.5 6.2 6.2 6.1 6.0 5.9 6.0 5.7 5.7 5.7 5.4 5.3 5.2 5.0 5.0 5.1 5.1 5.4 5.3 5.3 5.2 5.2 5.0 4.9 4.9 4.9 5.2 5.6 5.7 6.0 6.4 6.6 6.8 6.7 6.4 6.3 5.3 4.7 4.6 4.6
8.8 9.0 8.8 8.9 8.1 9.0 7.4 9.0 6.1 6.7 6.3 6.2 6.2 6.2 6.3 6.1 5.7 5.7 5.5 5.1 5.2 5.1 5.1 5.1 5.3 5.4 5.3 5.3 5.2 5.3 5.2 5.0 5.0 5.0 5.2 5.6 5.9 6.3 6.6 6.8 6.9 6.8 6.6 6.4 6.1 5.7 5.6 4.5 4.4
9.0 8.6 8.7 9.3 8.8 9.4 8.8 9.0 6.4 6.5 6.3 6.4 6.5 6.4 6.3 5.8 5.6 5.5 5.1 5.2 5.1 4.9 5.1 5.2 5.2 5.1 5.1 5.3 5.3 5.2 5.1 5.0 5.0 5.2 5.7 5.9 6.3 6.7 6.8 6.9 6.8 6.7 6.6 6.3 6.0 5.9 5.6 4.8 4.2
8.8 8.5 8.5 8.7 9.3 9.5 9.0 7.9 7.0 6.4 6.5 6.4 6.4 6.5 6.2 5.8 5.5 5.4 5.2 5.2 5.0 5.0 4.9 5.1 4.9 5.1 5.3 5.4 5.3 5.2 5.1 5.2 5.2 5.8 6.0 6.4 6.8 6.9 6.9 6.8 6.7 6.6 6.4 6.1 6.0 5.7 5.4 4.8 4.2
8.4 8.6 9.3 9.3 9.5 9.4 8.6 9.2 8.0 7.3 7.1 7.1 6.8 6.4 6.0 5.4 5.4 5.2 5.2 5.0 4.8 4.8 4.8 4.7 5.0 5.2 5.4 5.4 5.2 5.2 5.2 5.3 5.8 6.0 6.4 6.8 6.8 6.9 6.7 6.7 6.6 6.4 6.3 6.1 5.8 5.4 5.1 4.9 4.4
8.7 8.9 9.6 9.1 9.7 9.7 9.1 9.5 7.1 7.1 6.6 6.8 6.2 6.0 5.7 5.3 5.2 5.1 5.0 4.8 4.9 5.1 4.8 5.0 5.1 5.4 5.5 5.3 5.2 5.2 5.5 6.0 6.2 6.4 6.8 6.8 6.9 6.7 6.7 6.6 6.4 6.2 6.1 5.9 5.5 5.3 5.2 4.6 4.9
8.9 9.3 9.5 9.6 9.5 9.5 9.4 7.1 6.4 6.2 6.6 6.0 5.8 5.6 5.6 5.5 5.1 5.1 4.9 5.0 5.1 4.8 5.3 5.4 5.6 5.7 5.4 5.2 5.3 5.7 6.0 6.3 6.6 6.9 6.9 7.0 6.7 6.7 6.7 6.5 6.2 6.0 5.8 5.7 5.5 5.4 5.2 5.1 5.2
9.3 9.4 9.6 9.6 9.6 9.4 9.8 8.7 6.5 6.2 5.6 5.3 5.0 5.2 5.6 5.2 5.0 5.1 5.1 5.3 5.1 5.3 5.5 5.6 5.8 5.6 5.2 5.3 5.7 5.9 6.3 6.5 6.9 7.0 7.0 6.8 6.7 6.7 6.6 6.3 6.0 5.8 5.7 5.6 5.6 5.3 5.2 5.2 5.0
9.1 9.4 9.6 9.6 9.3 9.8 9.7 8.0 7.0 6.4 6.0 5.4 5.0 4.9 5.0 5.1 5.1 5.3 5.3 5.3 5.5 5.4 5.7 5.9 5.7 5.3 5.2 5.3 5.7 6.1 6.4 6.8 7.1 7.0 6.9 6.7 6.7 6.6 6.4 6.1 5.9 5.7 5.5 5.4 5.2 5.1 5.0 5.0 4.9
9.4 9.6 9.6 9.5 9.6 9.3 9.3 8.0 6.7 6.4 5.8 5.4 5.1 5.2 5.3 5.2 5.2 5.3 5.4 5.5 5.6 5.7 5.7 5.9 5.6 5.2 4.9 5.2 5.7 6.1 6.5 6.9 6.9 7.0 6.8 6.7 6.7 6.6 6.3 6.0 5.8 5.6 5.4 5.1 4.9 4.7 4.7 4.8 5.0
Wind_Speed
11 13 10 6 8 4 10 5 5 7 9 10 13 16 19 17 9 6 7 14 16 16 16 16 15 14 14 14 13 12 13 14 12 13 13 13 12 12 12 13 13 12 13 13 12 13 13 15 15
12 10 7 7 6 3 6 2 11 13 14 11 11 9 11 9 11 11 7 12 17 16 15 16 16 16 16 15 14 13 13 12 12 11 11 10 11 11 11 11 11 12 13 14 13 13 13 14 14
15 10 10 13 6 3 7 5 10 13 10 4 7 16 9 7 9 4 12 14 17 14 15 17 18 17 16 16 12 12 13 12 11 11 11 10 11 11 10 10 10 12 13 12 14 13 13 14 14
7 6 7 5 10 4 10 6 10 11 6 2 16 12 11 13 5 9 14 17 14 15 18 18 18 17 16 13 12 12 11 10 11 11 11 12 12 12 11 11 12 12 12 12 12 12 13 14 14
9 9 13 13 4 7 2 8 3 8 7 8 5 10 6 8 18 15 13 14 13 14 17 16 18 16 14 13 12 11 10 9 10 10 11 12 12 12 11 11 11 12 12 12 11 11 12 13 14
10 8 15 5 3 11 5 6 7 1 13 9 13 11 4 11 15 12 11 11 15 12 14 15 17 16 13 12 11 9 9 10 10 10 11 11 11 10 10 11 12 12 12 12 11 11 12 13 14
14 14 18 9 23 4 13 1 5 6 10 12 7 7 5 11 12 11 12 13 14 15 14 15 15 15 13 11 11 11 10 9 8 8 8 7 5 7 9 10 12 12 12 12 12 12 13 14 14
9 12 20 13 8 4 5 9 9 17 17 10 2 8 7 12 13 12 11 11 11 12 13 13 14 13 13 12 9 8 6 7 6 6 4 6 5 1 5 8 12 12 13 12 13 14 15 16 14
10 11 15 17 1 15 9 6 17 18 20 20 17 10 22 19 15 14 12 13 11 10 10 11 10 8 9 10 7 7 6 6 6 4 1 10 10 10 15 5 4 6 8 9 9 10 13 16 19
10 13 19 12 12 3 1 6 9 11 17 16 20 20 21 18 16 15 13 12 11 11 10 10 11 11 6 5 1 1 3 3 3 7 11 9 11 8 11 7 5 8 4 14 9 10 14 12 15
13 15 15 8 12 11 11 22 20 14 13 14 19 19 17 18 14 11 12 12 11 10 8 9 11 7 4 2 4 6 10 8 7 4 10 12 12 11 13 13 14 14 13 13 15 16 13 15 14
10 14 10 10 9 9 3 16 19 21 19 21 21 20 19 15 12 11 12 12 11 8 11 8 7 6 6 11 12 8 7 7 9 10 6 14 14 13 13 12 14 13 13 15 15 14 14 15 14
9 15 6 5 7 13 21 20 17 18 17 18 18 17 15 13 11 11 14 16 11 11 13 9 8 8 10 5 6 7 8 10 11 10 11 13 13 12 14 15 15 14 14 15 15 15 15 15 15
6 9 0 4 13 13 20 14 11 8 12 14 15 15 13 10 11 11 14 14 14 11 8 8 8 6 3 5 9 9 10 11 8 9 8 11 14 14 15 16 14 14 14 17 16 14 13 12 14
9 11 10 9 10 13 20 17 12 11 12 13 14 12 12 13 12 13 14 15 12 8 6 4 1 3 9 10 10 9 9 11 11 11 11 12 15 15 16 15 13 14 17 18 16 15 15 11 13
13 14 14 10 10 14 17 7 12 12 12 14 14 14 15 16 15 13 13 11 8 5 5 3 3 9 8 8 6 8 10 12 11 12 12 14 15 15 16 15 13 16 17 16 13 10 10 11 11
11 13 14 10 5 4 12 13 11 12 11 11 11 10 10 12 11 10 9 7 6 5 3 6 8 9 10 7 8 5 5 9 10 11 12 15 15 17 16 15 14 17 15 13 10 10 11 11 11
10 12 5 4 7 6 15 15 11 11 11 10 10 9 10 10 10 9 8 6 6 5 4 9 8 9 9 11 11 11 10 9 11 11 13 14 15 16 16 16 16 16 11 10 10 12 11 11 11
6 9 8 12 5 4 7 14 12 11 11 9 9 10 10 11 9 8 8 7 5 4 8 9 9 11 10 8 8 8 8 8 7 10 11 13 14 16 16 15 15 16 10 11 12 11 13 10 11
9 10 9 8 6 8 10 10 11 10 10 9 10 10 12 12 9 9 8 6 5 8 8 8 9 10 10 9 8 8 7 8 7 12 12 14 14 15 15 15 14 15 10 13 12 12 11 10 10
13 13 9 6 9 9 13 9 11 8 10 10 10 10 12 12 11 8 7 6 8 7 7 8 10 10 10 13 10 10 10 9 8 9 9 15 15 15 15 16 16 16 14 10 12 12 14 11 12
14 15 10 8 9 9 19 2 16 13 10 10 11 11 12 12 10 9 8 8 7 6 7 8 9 10 10 12 10 12 9 9 8 9 10 14 16 15 16 16 17 17 15 12 12 12 13 13 12
12 1 8 10 12 12 17 10 11 14 10 12 13 12 12 10 9 8 7 8 6 6 6 7 8 10 10 10 10 9 10 9 9 9 13 12 15 17 17 18 19 16 14 13 13 14 14 12 11
8 6 6 7 13 11 3 10 15 9 14 16 13 14 14 12 10 8 8 6 7 6 6 6 9 8 9 9 10 10 11 11 10 12 10 10 10 13 17 20 19 18 16 13 13 14 16 13 11
11 11 8 10 11 7 2 6 9 9 5 20 20 17 15 13 10 9 8 7 6 6 6 7 8 8 9 9 10 10 11 11 12 12 11 13 10 10 13 19 16 15 18 18 18 14 15 14 11
16 15 12 8 7 5 8 4 6 7 12 21 19 19 16 14 11 8 8 6 5 5 6 9 9 9 9 10 11 10 10 8 9 11 11 10 11 11 20 19 19 19 19 18 18 12 11 12 11
13 15 9 10 8 7 3 10 9 12 19 19 20 18 15 14 11 9 7 5 5 3 7 8 9 9 10 11 10 10 10 11 11 13 11 10 14 15 19 19 17 19 19 18 17 11 13 12 12
8 12 9 10 12 11 5 9 8 13 19 19 17 16 15 13 11 10 6 5 4 4 5 7 9 10 10 10 10 10 11 11 12 12 14 15 15 18 17 16 17 16 18 18 15 12 14 13 11
12 10 9 9 5 7 10 7 6 15 16 16 15 15 14 12 10 9 6 6 4 4 6 8 9 10 10 10 10 11 11 12 12 12 14 14 17 18 15 14 15 15 15 15 14 17 16 16 14
11 19 16 8 5 2 6 5 1 15 16 16 15 14 13 11 10 8 6 5 5 6 7 8 8 9 9 9 10 11 12 13 13 14 15 18 15 19 16 15 15 15 15 15 16 18 18 16 16
Wind_Direction
179 202 227 247 243 336 345 51 151 124 106 64 51 63 85 37 9 71 137 119 115 116 125 119 118 115 107 95 93 85 83 77 71 67 59 53 48 44 41 34 26 22 28 23 23 21 15 8 4
197 215 241 271 246 220 203 194 78 67 89 104 79 127 44 70 55 102 112 125 119 121 118 112 112 102 95 88 76 78 79 77 70 60 53 44 42 40 36 30 19 24 25 15 11 11 7 5 359
268 241 275 238 291 90 174 346 81 97 128 115 104 42 37 69 78 67 118 113 107 106 107 107 103 98 92 84 80 77 77 70 63 51 53 40 43 35 29 33 38 26 14 10 5 3 3 358 356
228 217 246 183 249 20 69 79 99 118 143 76 108 83 86 4 90 108 117 115 112 112 106 103 102 97 92 95 94 86 80 71 57 53 42 33 30 31 29 34 23 15 9 3 359 3 357 353 350
244 259 258 262 231 115 107 115 157 143 137 95 110 85 73 52 100 115 119 120 118 108 114 107 96 95 96 96 90 85 81 68 62 53 43 34 36 31 28 22 17 11 2 359 2 356 349 349 345
253 251 275 81 267 257 135 127 136 73 78 92 83 93 65 107 113 119 120 113 119 120 120 111 96 96 96 93 89 89 84 78 64 53 40 36 35 33 27 21 11 6 -0 358 355 350 343 341 337
257 282 277 275 181 220 59 177 163 125 105 49 95 82 117 123 126 130 126 131 128 141 130 117 114 111 105 95 96 93 96 80 74 59 40 37 40 37 27 11 8 3 358 354 345 341 335 328 324
290 288 283 283 281 52 188 253 7 55 66 86 51 139 157 143 137 133 149 148 143 113 117 121 139 132 127 100 86 91 83 97 84 69 29 308 224 5 72 11 12 356 352 345 343 336 326 314 302
257 270 266 284 314 55 19 289 83 77 89 55 39 91 121 138 146 156 158 144 122 125 126 121 115 95 103 104 105 157 154 162 183 187 77 281 354 343 337 45 351 313 325 313 311 311 307 297 288
242 253 266 20 348 43 150 54 75 129 107 81 81 98 119 141 157 159 161 130 135 128 123 101 84 60 56 61 342 337 261 20 8 355 336 344 337 350 309 314 254 305 309 320 326 302 287 303 334
243 248 302 348 34 351 308 72 26 342 80 128 133 127 139 154 156 152 137 133 127 109 91 98 71 53 345 33 324 3 339 349 329 41 350 328 329 348 335 328 335 331 329 336 327 324 332 334 320
261 264 287 326 22 300 306 81 57 50 66 111 125 136 141 150 137 144 123 105 106 112 86 75 69 48 14 332 18 315 337 332 347 357 345 343 337 339 336 328 323 326 335 328 334 325 331 316 312
244 270 259 57 46 65 72 78 83 71 82 105 123 137 135 126 136 133 130 113 103 91 49 46 57 42 28 350 310 345 343 353 341 358 10 348 330 335 328 327 319 325 334 330 326 322 330 316 312
324 260 173 222 153 122 107 102 115 87 109 118 138 128 116 137 136 96 99 91 80 79 73 52 37 17 321 337 353 347 4 339 354 349 3 341 338 342 326 322 329 328 341 330 321 328 319 319 316
262 246 182 193 182 126 129 64 91 126 126 127 117 96 79 70 69 93 85 78 80 68 60 55 47 9 9 9 2 8 12 337 352 354 358 5 343 344 334 323 326 334 337 318 323 327 324 321 318
237 232 244 145 194 165 224 111 123 134 133 102 94 87 77 66 68 73 76 77 79 88 67 51 23 34 37 10 11 356 11 347 357 354 355 9 341 347 334 329 331 345 322 323 328 328 327 322 322
201 250 209 143 201 251 222 124 137 136 124 113 104 94 89 87 80 81 87 94 96 97 109 64 45 36 6 21 347 337 4 355 359 353 0 356 339 344 338 326 333 333 318 323 326 334 324 322 317
236 193 263 233 102 64 75 116 143 146 131 124 116 109 103 102 103 104 100 118 118 93 105 61 40 22 355 5 357 355 356 360 354 353 5 351 346 338 337 327 336 324 322 325 335 319 321 312 314
317 292 260 101 93 112 115 140 147 146 124 138 130 123 115 116 121 129 124 95 118 122 66 42 40 22 3 14 0 355 353 348 350 348 352 340 347 337 331 329 325 324 328 323 311 309 311 312 314
244 237 236 80 146 248 144 132 150 156 155 156 147 136 135 133 132 133 116 121 117 80 61 47 31 30 15 360 4 352 343 340 353 353 342 350 338 334 329 333 327 328 317 310 313 314 307 311 309
228 242 232 264 171 225 150 157 156 130 130 135 141 146 151 151 136 127 133 150 97 76 56 41 31 25 22 3 8 353 346 349 0 347 347 343 341 335 331 328 327 325 313 317 314 311 309 310 311
229 216 251 175 210 223 206 308 177 165 157 156 153 163 152 130 144 136 157 114 91 79 59 37 26 24 21 18 2 353 353 351 349 348 348 332 339 336 332 336 334 320 322 313 320 319 317 306 303
244 320 243 227 222 275 194 252 112 161 179 173 163 162 139 150 143 153 139 108 87 83 72 34 21 24 18 8 7 356 359 346 345 352 338 345 339 342 341 344 331 329 320 326 321 316 316 308 302
231 217 230 219 234 243 34 248 144 175 200 168 164 161 154 149 156 164 122 120 84 63 49 28 19 25 17 8 4 3 357 347 344 351 343 344 343 342 344 342 333 328 330 330 324 322 311 314 313
204 195 199 215 220 265 260 285 63 90 107 160 160 162 155 159 163 164 157 99 83 64 45 7 21 25 16 7 4 4 358 351 344 349 346 336 342 343 346 339 336 333 332 328 326 321 316 310 319
203 207 246 253 296 134 182 25 91 88 92 130 148 162 148 160 182 150 111 110 109 78 37 18 14 20 13 8 4 3 358 353 346 349 344 340 339 338 338 338 333 333 330 329 326 319 312 325 329
197 232 276 300 272 281 252 97 103 118 115 139 156 145 154 169 168 134 121 121 90 67 48 23 6 16 13 7 3 0 354 350 345 343 343 342 339 334 342 334 333 332 332 332 330 318 316 341 319
263 216 220 230 264 270 314 97 107 148 139 147 149 150 157 161 145 130 131 109 74 45 62 27 8 14 10 5 1 358 348 347 342 340 343 340 340 337 335 335 335 334 337 336 324 322 331 323 309
199 231 239 308 320 311 303 86 77 148 147 151 153 150 153 148 144 129 126 96 79 34 37 26 17 7 8 0 357 353 349 344 345 343 342 343 339 340 337 339 338 339 337 333 330 336 333 328 314
294 212 220 236 213 169 299 92 204 127 142 147 144 145 142 142 134 128 106 102 65 38 21 30 15 7 4 356 354 357 349 346 346 345 346 345 341 341 340 342 339 339 337 335 348 335 335 325 316